�������l�o���
Date,Time,MP-1(��Sv/h),MP-2(��Sv/h),MP-3(��Sv/h),MP-4(��Sv/h),MP-5(��Sv/h),MP-6(��Sv/h),MP-7(��Sv/h),MP-8(��Sv/h),����,����(m/s),���J
2018/04/25,00:00,0.838,1.385,0.872,1.601,1.109,0.475,0.836,0.802,�k�k��,5.1,�L
2018/04/25,00:10,0.835,1.384,0.871,1.602,1.109,0.475,0.834,0.802,�k�k��,4.9,�L
2018/04/25,00:20,0.832,1.383,0.868,1.598,1.107,0.476,0.835,0.801,�k�k��,3.6,�L
2018/04/25,00:30,0.835,1.386,0.869,1.597,1.106,0.474,0.835,0.802,�k�k��,4.0,�L
2018/04/25,00:40,0.834,1.383,0.870,1.601,1.106,0.475,0.835,0.801,�k�k��,3.2,�L
2018/04/25,00:50,0.832,1.385,0.870,1.598,1.106,0.474,0.836,0.801,�k�k��,4.5,�L
2018/04/25,01:00,0.835,1.384,0.870,1.599,1.107,0.474,0.836,0.802,�k�k��,5.0,�L
2018/04/25,01:10,0.834,1.382,0.867,1.600,1.106,0.476,0.835,0.801,�k�k��,5.3,�L
2018/04/25,01:20,0.833,1.384,0.869,1.596,1.106,0.474,0.836,0.801,�k�k��,5.7,�L
2018/04/25,01:30,0.834,1.385,0.869,1.599,1.107,0.475,0.835,0.802,�k�k��,6.6,�L
2018/04/25,01:40,0.834,1.381,0.869,1.599,1.107,0.475,0.836,0.802,�k�k��,5.5,�L
2018/04/25,01:50,0.834,1.384,0.868,1.600,1.107,0.475,0.837,0.804,�k�k��,6.0,�L
2018/04/25,02:00,0.834,1.383,0.868,1.600,1.106,0.473,0.837,0.802,�k�k��,5.7,�L
2018/04/25,02:10,0.833,1.381,0.869,1.599,1.103,0.474,0.836,0.803,�k�k��,5.8,�L
2018/04/25,02:20,0.833,1.380,0.865,1.594,1.102,0.474,0.835,0.802,�k�k��,5.7,�L
2018/04/25,02:30,0.831,1.380,0.866,1.592,1.103,0.475,0.834,0.801,�k�k��,6.1,�L
2018/04/25,02:40,0.831,1.378,0.875,1.593,1.103,0.475,0.834,0.801,�k�k��,5.6,�L
2018/04/25,02:50,0.831,1.379,0.866,1.589,1.101,0.474,0.832,0.800,�k�k��,6.4,�L
2018/04/25,03:00,0.829,1.379,0.867,1.592,1.101,0.475,0.834,0.800,�k�k��,5.9,�L
2018/04/25,03:10,0.830,1.376,0.866,1.590,1.103,0.474,0.833,0.801,�k�k��,7.6,�L
2018/04/25,03:20,0.830,1.378,0.864,1.591,1.101,0.475,0.833,0.800,�k�k��,5.9,�L
2018/04/25,03:30,0.830,1.372,0.863,1.587,1.098,0.474,0.833,0.799,�k�k��,6.7,�L
2018/04/25,03:40,0.826,1.371,0.862,1.582,1.098,0.475,0.830,0.799,�k�k��,6.1,�L
2018/04/25,03:50,0.827,1.364,0.862,1.579,1.093,0.475,0.830,0.798,�k�k��,6.3,�L
2018/04/25,04:00,0.828,1.365,0.862,1.578,1.091,0.472,0.830,0.798,�k�k��,7.3,�L
2018/04/25,04:10,0.827,1.363,0.859,1.577,1.091,0.473,0.828,0.799,�k��,7.4,�L
2018/04/25,04:20,0.826,1.360,0.859,1.574,1.090,0.473,0.829,0.798,�k��,7.4,�L
2018/04/25,04:30,0.825,1.352,0.856,1.564,1.087,0.472,0.827,0.795,�k��,6.0,�L
2018/04/25,04:40,0.821,1.346,0.856,1.564,1.085,0.473,0.827,0.792,�k�k��,7.6,�L
2018/04/25,04:50,0.822,1.350,0.856,1.565,1.081,0.472,0.828,0.794,�k�k��,7.7,�L
2018/04/25,05:00,0.821,1.349,0.856,1.559,1.082,0.471,0.828,0.794,��,4.3,�L
2018/04/25,05:10,0.817,1.340,0.851,1.554,1.074,0.469,0.825,0.793,-,CALM,�L
2018/04/25,05:20,0.815,1.338,0.849,1.548,1.070,0.467,0.822,0.790,�k�k��,8.7,�L
2018/04/25,05:30,0.815,1.335,0.848,1.551,1.068,0.468,0.823,0.790,�k�k��,3.9,�L
2018/04/25,05:40,0.813,1.333,0.846,1.545,1.064,0.466,0.821,0.787,�k�k��,8.6,�L
2018/04/25,05:50,0.812,1.333,0.845,1.548,1.061,0.466,0.819,0.789,-,CALM,�L
2018/04/25,06:00,0.811,1.332,0.846,1.545,1.062,0.466,0.821,0.791,�k��,7.7,�L
2018/04/25,06:10,0.814,1.332,0.844,1.544,1.057,0.466,0.821,0.790,�k�k��,9.0,�L
2018/04/25,06:20,0.814,1.331,0.843,1.545,1.060,0.467,0.822,0.789,�k��,8.7,�L
2018/04/25,06:30,0.813,1.331,0.844,1.542,1.057,0.466,0.819,0.790,�k�k��,9.1,�L
2018/04/25,06:40,0.813,1.328,0.844,1.544,1.058,0.468,0.819,0.788,�k��,8.7,�L
2018/04/25,06:50,0.813,1.331,0.843,1.542,1.057,0.467,0.820,0.788,�k�k��,8.9,�L
2018/04/25,07:00,0.811,1.330,0.842,1.543,1.058,0.467,0.817,0.790,�k��,7.9,�L
2018/04/25,07:10,0.814,1.328,0.844,1.543,1.056,0.466,0.819,0.788,�k�k��,6.4,�L
2018/04/25,07:20,0.813,1.331,0.843,1.542,1.055,0.467,0.818,0.788,�k��,8.5,�L
2018/04/25,07:30,0.813,1.328,0.841,1.541,1.054,0.466,0.817,0.789,�k��,7.2,�L
2018/04/25,07:40,0.810,1.322,0.839,1.535,1.049,0.466,0.817,0.787,�k��,7.8,�L
2018/04/25,07:50,0.809,1.323,0.836,1.536,1.048,0.465,0.815,0.789,�k��,8.2,�L
2018/04/25,08:00,0.811,1.324,0.839,1.537,1.049,0.465,0.817,0.787,�k��,7.5,�L
2018/04/25,08:10,0.811,1.324,0.840,1.538,1.050,0.465,0.818,0.788,�k�k��,7.6,�L
2018/04/25,08:20,0.808,1.319,0.838,1.536,1.046,0.467,0.818,0.786,�k�k��,6.6,�L
2018/04/25,08:30,0.810,1.321,0.836,1.535,1.046,0.466,0.816,0.787,�k�k��,7.1,�L
2018/04/25,08:40,0.810,1.326,0.839,1.538,1.047,0.466,0.818,0.786,�k�k��,7.5,�L
2018/04/25,08:50,0.813,1.327,0.838,1.543,1.049,0.465,0.817,0.788,�k��,6.8,�L
2018/04/25,09:00,0.811,1.328,0.839,1.540,1.048,0.465,0.816,0.787,�k�k��,6.8,�L
2018/04/25,09:10,0.813,1.329,0.838,1.538,1.046,0.467,0.814,0.790,�k�k��,7.4,�L
2018/04/25,09:20,0.813,1.326,0.838,1.536,1.045,0.466,0.815,0.789,�k�k��,5.9,�L
2018/04/25,09:30,0.809,1.326,0.838,1.535,1.044,0.465,0.815,0.788,�k�k��,6.5,�L
2018/04/25,09:40,0.810,1.322,0.837,1.536,1.044,0.463,0.814,0.786,�k�k��,7.4,�L
2018/04/25,09:50,0.808,1.319,0.833,1.533,1.040,0.464,0.812,0.784,�k�k��,8.7,�L
2018/04/25,10:00,0.806,1.317,0.834,1.530,1.037,0.463,0.812,0.784,-,CALM,�L
2018/04/25,10:10,0.805,1.314,0.832,1.523,1.033,0.463,0.810,0.784,�k,5.0,�L
2018/04/25,10:20,0.800,1.306,0.829,1.522,1.030,0.462,0.810,0.782,-,CALM,�L
2018/04/25,10:30,0.800,1.303,0.829,1.518,1.025,0.459,0.808,0.781,�k��,6.2,�L
2018/04/25,10:40,0.800,1.299,0.828,1.517,1.022,0.460,0.808,0.779,-,CALM,�L
2018/04/25,10:50,0.802,1.297,0.829,1.516,1.026,0.460,0.809,0.780,�k,3.6,�L
2018/04/25,11:00,0.803,1.298,0.829,1.519,1.027,0.463,0.810,0.781,�k�k��,5.7,�L
2018/04/25,11:10,0.804,1.304,0.832,1.520,1.026,0.463,0.810,0.783,�k�k��,4.4,�L
2018/04/25,11:20,0.805,1.304,0.832,1.521,1.026,0.462,0.811,0.783,�k�k��,3.9,�L
2018/04/25,11:30,0.806,1.308,0.835,1.526,1.028,0.463,0.812,0.784,�k�k��,5.5,�L
2018/04/25,11:40,0.807,1.311,0.837,1.525,1.030,0.464,0.812,0.785,�k,4.6,�L
2018/04/25,11:50,0.810,1.313,0.837,1.529,1.032,0.465,0.811,0.784,�k�k��,4.6,�L
2018/04/25,12:00,0.810,1.315,0.839,1.532,1.033,0.466,0.812,0.785,�k�k��,4.5,�L
2018/04/25,12:10,0.815,1.319,0.840,1.535,1.036,0.465,0.813,0.786,�k�k��,4.9,�L
2018/04/25,12:20,0.815,1.321,0.843,1.536,1.037,0.467,0.815,0.787,�k�k��,6.0,�L
2018/04/25,12:30,0.815,1.323,0.842,1.541,1.039,0.466,0.814,0.789,�k�k��,6.4,�L
2018/04/25,12:40,0.814,1.324,0.843,1.541,1.038,0.467,0.815,0.787,�k�k��,7.6,�L
2018/04/25,12:50,0.815,1.326,0.844,1.543,1.036,0.468,0.817,0.789,�k�k��,8.7,�L
2018/04/25,13:00,0.814,1.325,0.841,1.542,1.038,0.468,0.816,0.789,�k�k��,7.4,�L
2018/04/25,13:10,0.814,1.323,0.840,1.542,1.036,0.468,0.814,0.788,�k,7.9,�L
2018/04/25,13:20,0.812,1.315,0.840,1.537,1.034,0.465,0.815,0.787,�k�k��,8.9,�L
2018/04/25,13:30,0.813,1.314,0.838,1.539,1.033,0.465,0.816,0.786,�k,9.2,�L
2018/04/25,13:40,0.813,1.313,0.838,1.538,1.032,0.465,0.814,0.788,�k�k��,9.9,�L
2018/04/25,13:50,0.811,1.316,0.839,1.539,1.038,0.465,0.816,0.787,�k�k��,9.0,�L
2018/04/25,14:00,0.811,1.318,0.841,1.540,1.038,0.465,0.816,0.785,�k�k��,8.8,�L
2018/04/25,14:10,0.814,1.320,0.840,1.540,1.039,0.466,0.818,0.788,�k�k��,8.5,�L
2018/04/25,14:20,0.814,1.322,0.842,1.545,1.040,0.467,0.819,0.789,�k�k��,9.3,�L
2018/04/25,14:30,0.816,1.321,0.843,1.546,1.043,0.467,0.820,0.790,�k�k��,7.2,�L
2018/04/25,14:40,0.820,1.327,0.843,1.549,1.044,0.466,0.819,0.790,�k�k��,9.1,�L
2018/04/25,14:50,0.818,1.328,0.844,1.549,1.044,0.467,0.819,0.793,�k�k��,9.6,�L
2018/04/25,15:00,0.817,1.329,0.843,1.550,1.044,0.467,0.820,0.793,�k�k��,8.2,�L
2018/04/25,15:10,0.820,1.329,0.843,1.551,1.046,0.469,0.821,0.793,�k�k��,9.6,��
2018/04/25,15:20,0.816,1.332,0.845,1.552,1.049,0.467,0.821,0.794,�k�k��,9.7,�L
2018/04/25,15:30,0.820,1.336,0.843,1.553,1.049,0.468,0.819,0.794,�k�k��,9.1,�L
2018/04/25,15:40,0.819,1.339,0.844,1.556,1.052,0.468,0.821,0.793,�k�k��,9.1,��
2018/04/25,15:50,0.820,1.337,0.845,1.557,1.051,0.468,0.821,0.795,�k,7.3,��
2018/04/25,16:00,0.820,1.340,0.845,1.556,1.054,0.469,0.822,0.795,�k,6.5,�L
2018/04/25,16:10,0.822,1.339,0.845,1.560,1.053,0.470,0.822,0.793,�k,6.6,��
2018/04/25,16:20,0.821,1.339,0.846,1.560,1.056,0.470,0.823,0.795,�k�k��,6.1,��
2018/04/25,16:30,0.823,1.342,0.846,1.559,1.053,0.468,0.823,0.796,�k,6.6,��
2018/04/25,16:40,0.821,1.342,0.846,1.562,1.053,0.468,0.824,0.795,�k,6.9,��
2018/04/25,16:50,0.821,1.340,0.846,1.560,1.054,0.469,0.824,0.794,�k,7.4,��
2018/04/25,17:00,0.820,1.342,0.847,1.563,1.054,0.468,0.825,0.796,�k,7.1,��
2018/04/25,17:10,0.819,1.343,0.846,1.564,1.053,0.468,0.824,0.795,�k,7.8,��
2018/04/25,17:20,0.820,1.344,0.845,1.562,1.053,0.466,0.826,0.798,�k,7.2,��
2018/04/25,17:30,0.821,1.345,0.845,1.561,1.054,0.470,0.825,0.798,�k,6.7,��
2018/04/25,17:40,0.821,1.342,0.847,1.564,1.057,0.469,0.822,0.796,�k�k��,6.6,��
2018/04/25,17:50,0.821,1.342,0.847,1.563,1.055,0.469,0.826,0.794,�k,6.7,��
2018/04/25,18:00,0.821,1.342,0.847,1.563,1.058,0.469,0.824,0.795,�k�k��,7.1,��
2018/04/25,18:10,0.823,1.347,0.846,1.562,1.057,0.469,0.827,0.797,�k,6.7,��
2018/04/25,18:20,0.821,1.347,0.850,1.564,1.058,0.470,0.823,0.797,�k,5.1,��
2018/04/25,18:30,0.823,1.347,0.848,1.563,1.058,0.470,0.824,0.796,�k,6.0,��
2018/04/25,18:40,0.823,1.347,0.847,1.563,1.059,0.470,0.824,0.796,�k,4.8,��
2018/04/25,18:50,0.823,1.347,0.848,1.564,1.059,0.470,0.825,0.796,�k,4.9,��
2018/04/25,19:00,0.822,1.348,0.847,1.565,1.060,0.471,0.826,0.798,�k,4.0,��
2018/04/25,19:10,0.824,1.350,0.849,1.567,1.060,0.470,0.826,0.797,�k,5.1,��
2018/04/25,19:20,0.823,1.348,0.848,1.566,1.063,0.470,0.825,0.798,�k�k��,5.1,��
2018/04/25,19:30,0.823,1.347,0.850,1.568,1.063,0.469,0.825,0.799,�k,4.8,��
2018/04/25,19:40,0.824,1.348,0.850,1.568,1.063,0.469,0.827,0.798,�k,4.3,��
2018/04/25,19:50,0.823,1.349,0.849,1.565,1.064,0.469,0.826,0.797,�k,5.3,��
2018/04/25,20:00,0.823,1.348,0.850,1.568,1.064,0.470,0.826,0.796,�k,4.7,��
2018/04/25,20:10,0.824,1.349,0.851,1.569,1.064,0.467,0.826,0.797,�k,3.7,��
2018/04/25,20:20,0.823,1.349,0.849,1.566,1.063,0.469,0.827,0.797,�k,3.7,��
2018/04/25,20:30,0.823,1.350,0.852,1.569,1.066,0.470,0.825,0.798,�k,3.6,��
2018/04/25,20:40,0.823,1.350,0.851,1.567,1.065,0.471,0.828,0.799,�k,2.8,��
2018/04/25,20:50,0.822,1.350,0.850,1.567,1.064,0.470,0.826,0.797,�k�k��,3.3,��
2018/04/25,21:00,0.823,1.349,0.852,1.568,1.065,0.470,0.826,0.796,�k�k��,3.5,��
2018/04/25,21:10,0.824,1.351,0.851,1.568,1.065,0.468,0.828,0.796,�k,4.0,��
2018/04/25,21:20,0.823,1.349,0.851,1.569,1.065,0.469,0.828,0.796,�k,4.0,��
2018/04/25,21:30,0.824,1.351,0.850,1.568,1.066,0.470,0.828,0.795,�k,4.5,��
2018/04/25,21:40,0.823,1.348,0.851,1.567,1.064,0.470,0.829,0.795,�k,4.3,��
2018/04/25,21:50,0.823,1.350,0.850,1.569,1.065,0.471,0.826,0.796,�k�k��,4.4,�L
2018/04/25,22:00,0.824,1.350,0.851,1.569,1.063,0.470,0.828,0.796,�k,3.7,��
2018/04/25,22:10,0.822,1.347,0.851,1.570,1.068,0.470,0.827,0.796,�k�k��,5.1,�L
2018/04/25,22:20,0.823,1.351,0.850,1.569,1.066,0.472,0.827,0.798,�k,4.4,�L
2018/04/25,22:30,0.824,1.349,0.849,1.572,1.067,0.471,0.827,0.798,�k�k��,3.9,��
2018/04/25,22:40,0.823,1.348,0.850,1.573,1.066,0.470,0.827,0.797,�k,5.4,��
2018/04/25,22:50,0.824,1.351,0.849,1.570,1.066,0.471,0.828,0.796,�k�k��,5.6,��
2018/04/25,23:00,0.824,1.351,0.850,1.570,1.067,0.470,0.828,0.796,�k�k��,4.6,��
2018/04/25,23:10,0.822,1.350,0.848,1.570,1.069,0.469,0.829,0.797,�k�k��,4.1,��
2018/04/25,23:20,0.822,1.349,0.850,1.569,1.069,0.470,0.828,0.798,�k�k��,5.0,��
2018/04/25,23:30,0.825,1.350,0.849,1.570,1.067,0.471,0.828,0.797,�k�k��,4.4,��
2018/04/25,23:40,0.823,1.351,0.851,1.566,1.069,0.470,0.829,0.798,�k,3.0,��
2018/04/25,23:50,0.822,1.350,0.850,1.568,1.065,0.469,0.827,0.797,�k�k��,3.8,��
